This demonstration page uses our WeatherBlox Daily Observations layout. Learn more.

38.88101, -77.10428

Hourly Observations for August 11, 2016

Temp ( °F °C ) Dew Point ( °F °C ) Humidity (%) Winds ( mph kmh ) Pressure ( in mb ) Visibility ( mi km ) Precip ( " mm )
12:52 am 00:52 Mostly Cloudy 81 27.2 74 23.3 79 79 S 9 15 30.15 1021 10 16.09344 0 0
1:52 am 01:52 Mostly Cloudy 81 27.2 75 23.9 82 82 S 9 15 30.12 1020 10 16.09344 0 0
2:52 am 02:52 Mostly Cloudy 81 27.2 75 23.9 82 82 S 10 17 30.12 1020 10 16.09344 0 0
3:52 am 03:52 Cloudy 80 26.7 74 23.3 82 82 S 9 15 30.12 1020 10 16.09344 0 0
4:52 am 04:52 Mostly Cloudy 79 26.1 74 23.3 85 85 S 7 11 30.12 1020 10 16.09344 0 0
5:52 am 05:52 Mostly Clear 79 26.1 74 23.3 85 85 SSW 6 9 30.12 1020 10 16.09344 0 0
6:52 am 06:52 Partly Cloudy 79 26.1 74 23.3 85 85 S 9 15 30.15 1021 10 16.09344 0 0
7:52 am 07:52 Mostly Sunny 81 27.2 74 23.3 79 79 SSW 6 9 30.15 1021 10 16.09344 0 0
8:52 am 08:52 Mostly Sunny 84 28.9 74 23.3 72 72 S 9 15 30.15 1021 10 16.09344 0 0
9:52 am 09:52 Partly Cloudy 88 31.1 73 22.8 61 61 SSW 10 17 30.15 1021 10 16.09344 0 0
10:52 am 10:52 Mostly Cloudy 91 32.8 75 23.9 59 59 S 14 22 30.12 1020 10 16.09344 0 0
11:52 am 11:52 Mostly Cloudy 93 33.9 73 22.8 52 52 SW 8 13 30.12 1020 10 16.09344 0 0
12:52 pm 12:52 Mostly Cloudy with Light Rain 95 35 74 23.3 51 51 S 12 19 30.09 1019 10 16.09344 0.001 0.001
1:52 pm 13:52 Mostly Cloudy 96 35.6 73 22.8 47 47 S 14 22 30.09 1019 10 16.09344 0 0
2:52 pm 14:52 Partly Cloudy 97 36.1 72 22.2 45 45 SW 14 22 30.06 1018 10 16.09344 0 0
3:52 pm 15:52 Mostly Sunny 96 35.6 73 22.8 47 47 S 16 26 30.03 1017 10 16.09344 0 0
4:52 pm 16:52 Mostly Sunny 95 35 70 21.1 44 44 SSW 16 26 30.03 1017 10 16.09344 0 0
5:52 pm 17:52 Mostly Sunny 94 34.4 71 21.7 48 48 SSW 16 26 30 1016 10 16.09344 0 0
6:52 pm 18:52 Mostly Sunny 92 33.3 70 21.1 49 49 SW 14 22 30 1016 10 16.09344 0 0
7:52 pm 19:52 Partly Cloudy 90 32.2 70 21.1 52 52 SSW 15 24 30.03 1017 10 16.09344 0 0
8:52 pm 20:52 Partly Cloudy 88 31.1 72 22.2 59 59 SSW 9 15 30.03 1017 10 16.09344 0 0
9:52 pm 21:52 Partly Cloudy 86 30 74 23.3 67 67 S 9 15 30.03 1017 10 16.09344 0 0
10:52 pm 22:52 Partly Cloudy 84 28.9 75 23.9 74 74 S 9 15 30.03 1017 10 16.09344 0 0
11:52 pm 23:52 Partly Cloudy 84 28.9 75 23.9 74 74 S 9 15 30.03 1017 10 16.09344 0 0

Powered by AerisWeather